Cosmos 407 Rocket - Orbit

View from above orbital plane
View from above orbital plane
View from above satellite
View from above satellite

Ground track
Ground track

The orbit data is extracted from the following two-line orbital elements,

1 05175U 71035B   13141.14108607  .00000171  00000-0  66019-4 0  1303
2 05175 074.0504 066.1087 0031298 283.2077 076.5585 14.37256734201113
Epoch (UTC): 21 May 2013 03:23:09
Eccentricity: 0.0031298
inclination: 74.0504°
perigee height: 745 km
apogee height: 790 km
right ascension of ascending node: 66.1087°
argument of perigee: 283.2077°
revolutions per day: 14.37256734
mean anomaly at epoch: 76.5585°
orbit number at epoch: 20111

The dashed part of the orbit path shows where the satellite is in the earth's shadow,  

Developed and maintained by Chris Peat, Heavens-Above GmbH. Please read the updated FAQ before sending e-mail. Imprint. DLR